STARLINK-35049 (65444 NORAD) Tracking and Keplerian Element Data

This shows tracking and keplerian element data for the satellite.

Feedback or suggestion? Click here.




ElementValue
Catalog65444
NameSTARLINK-35049
Epoch Orbit1766
Epoch Day354.04644819
Epoch Year2025
RAAN205.8874
Inclination97.6032
Eccentricity0.0002221
Argument of Perigee84.8021
Mean Anonmoly275.346
Mean Motion15.05653274
Decay Rate3.553E-05
L11 65444U 25194L 25354.04644819 .00003553 00000+0 25032-3 0 9999
L22 65444 97.6032 205.8874 0002221 84.8021 275.3460 15.05653274 17661



Live tracking and technical data element details for STARLINK-35049 (NORAD 65444). STARLINK-35049 can be tracked NOW for your location showing map with azimuth and elevation plus other details from your city location.







IsCatalogInMostPopularTable: catalog: 65444, numindb: 2
Update: records affected: 1



GetName: 65444 STARLINK-35049

Hit Count: updated at: Sun, 08 Feb 2026 07:49:13 GMT